EDT,Max TemperatureF,Mean TemperatureF,Min TemperatureF,Max Dew PointF,MeanDew PointF,Min DewpointF,Max Humidity, Mean Humidity, Min Humidity, Max Sea Level PressureIn, Mean Sea Level PressureIn, Min Sea Level PressureIn, Max VisibilityMiles, Mean VisibilityMiles, Min VisibilityMiles, Max Wind SpeedMPH, Mean Wind SpeedMPH, Max Gust SpeedMPH,PrecipitationIn, CloudCover, Events, WindDirDegrees
2014-5-1,72,61,50,55,49,37,100,71,41,29.89,29.84,29.76,10,5,0,20,6,23,0.01,7,Fog-Rain,178
2014-5-2,64,56,48,38,36,34,61,48,34,29.91,29.87,29.83,10,10,10,25,10,32,0.00,5,,263
2014-5-3,70,59,47,47,39,35,71,50,28,29.91,29.86,29.75,10,10,10,20,6,24,0.00,4,Rain,219
2014-5-4,67,59,51,43,38,30,63,52,40,29.99,29.86,29.77,10,10,10,24,9,32,0.00,3,,317
2014-5-5,64,52,40,38,33,28,70,49,28,30.10,30.02,29.94,10,10,10,12,5,18,0.00,1,,260
2014-5-6,71,59,47,45,38,34,86,56,26,30.08,29.98,29.93,10,10,10,10,4,17,0.00,2,,102
2014-5-7,61,55,48,50,42,32,72,56,39,30.29,30.20,30.10,10,8,2,10,6,15,0.28,4,Rain-Thunderstorm,80
2014-5-8,83,66,48,60,53,47,93,68,43,30.19,30.11,30.01,10,8,4,9,3,12,0.00,1,,174
2014-5-9,80,70,60,63,60,57,90,71,52,30.13,30.06,29.94,10,6,2,16,5,20,0.00,2,Rain,136
2014-5-10,76,71,65,65,61,56,87,69,50,30.01,29.97,29.94,10,9,2,20,8,26,0.01,5,Rain,218
2014-5-11,79,68,56,58,51,42,93,61,28,30.17,30.10,30.01,10,10,10,15,5,18,0.00,1,,216
2014-5-12,83,71,58,64,57,49,78,62,45,30.15,30.12,30.08,10,10,8,12,3,17,0.01,3,Rain,205
2014-5-13,88,77,65,68,64,61,100,72,43,30.17,30.11,30.06,10,9,2,14,5,17,0.10,3,Rain-Thunderstorm,182
2014-5-14,68,64,59,63,59,55,90,84,78,30.25,30.20,30.14,10,8,3,10,7,14,0.00,7,,92
2014-5-15,80,73,65,65,64,62,93,78,62,30.15,30.01,29.90,10,7,0,26,11,32,T,7,Fog-Rain-Thunderstorm,156
2014-5-16,66,60,53,65,54,39,100,74,48,29.99,29.87,29.79,10,6,1,17,11,25,1.70,7,Rain,283
2014-5-17,64,56,47,42,38,31,77,54,30,30.22,30.10,30.00,10,10,10,18,7,23,0.00,4,,278
2014-5-18,64,54,43,41,36,32,76,55,34,30.30,30.26,30.23,10,10,10,16,8,20,0.00,2,,319
2014-5-19,72,57,42,40,37,32,82,54,25,30.35,30.26,30.19,10,10,10,14,4,18,0.00,0,,263
2014-5-20,73,61,48,48,42,36,77,52,27,30.25,30.14,30.03,10,10,10,8,4,11,0.00,3,,145
2014-5-21,71,64,57,62,56,49,90,73,56,30.04,29.98,29.91,10,7,3,17,4,22,T,6,Rain,341
2014-5-22,83,72,61,63,59,46,100,72,43,29.98,29.85,29.79,10,6,0,26,8,36,0.74,4,Fog-Rain-Thunderstorm,253
2014-5-23,73,64,54,50,46,41,77,59,40,30.09,30.00,29.95,10,10,10,23,12,29,0.00,1,,309
2014-5-24,74,62,49,53,49,44,83,61,38,30.16,30.12,30.08,10,10,9,16,7,24,0.00,2,,310
2014-5-25,79,66,52,53,48,42,93,62,30,30.22,30.16,30.12,10,10,8,13,3,16,0.00,0,,214
2014-5-26,83,70,57,56,51,44,77,52,26,30.17,30.08,29.99,10,10,10,12,5,19,0.00,0,,212
2014-5-27,86,76,65,67,62,52,78,63,48,30.01,29.94,29.87,10,10,8,28,6,34,T,3,Rain-Thunderstorm,224
2014-5-28,81,74,66,66,64,60,87,73,58,30.08,29.95,29.89,10,10,7,14,6,17,0.01,5,Rain,265
2014-5-29,60,58,56,56,54,52,93,87,80,30.21,30.15,30.10,10,8,2,13,6,18,0.03,8,Rain,112
2014-5-30,74,65,55,55,54,52,93,71,49,30.21,30.15,30.09,10,8,3,12,6,17,0.00,6,,13
2014-5-31,78,67,56,55,47,40,93,62,31,30.27,30.21,30.17,10,10,10,17,6,25,0.00,0,,15